Flag for Denmark Weather past 2 weeks in Randers, Denmark

43 °F

Passing clouds.

Feels Like: 34 °F
Forecast: 40 / 45 °F
Wind: 22 mph from West

Location: Tirstrup

Current Time: Nov 30, 2015 at 12:53:13 PM

Latest Report: Nov 30, 2015 at 12:20 PM

Visibility: N/A

Pressure: 29.56 "Hg

Humidity: 66%

Dew point: 32 °F

Location of RandersLocation

Historic Weather in Randers — Graph


Randers temperature yesterday

Maximum temperature yesterday: 48 °F (at 7:20 PM)
Minimum temperature yesterday: 39 °F (at 9:20 PM)
Average temperature yesterday: 43 °F

Past Weeks' High & Low Weather Summary

High55 °F (Nov 16, 1:20 PM)100% (Nov 22, 11:50 AM)30.07 "Hg (Nov 22, 11:50 AM)
Low19 °F (Nov 23, 3:50 AM)61% (Nov 21, 2:20 PM)28.77 "Hg (Nov 29, 8:20 PM)
Average41 °F82%29.57 "Hg
* Reported Nov 15 11:20 AM — Nov 30 11:50 AM, Randers, Weather by CustomWeather, © 2015

Note: Actual official high and low records may vary slightly from our data, if they occured in-between our weather recording intervals... More about our weather records


Randers weather history for previous 24 hours

Time TempWeatherWind HumidityBarometerVisibility
11:50 AM
Mon, Nov 30
43 °FQuite cool.18 mph66%29.56 "HgN/A
11:20 AM43 °FPassing clouds.25 mph61%29.53 "HgN/A
10:50 AM43 °FSprinkles. Partly sunny.24 mph71%29.53 "HgN/A
10:20 AM41 °FScattered clouds.21 mph70%29.53 "HgN/A
9:50 AM41 °FScattered clouds.21 mph70%29.50 "HgN/A
9:20 AM41 °FPassing clouds.22 mph70%29.50 "HgN/A
7:50 AM39 °FPassing clouds.16 mph75%29.45 "HgN/A
7:20 AM39 °FLight rain. Overcast.20 mph81%29.42 "Hg5 mi
6:50 AM41 °FQuite cool.22 mph66%29.42 "HgN/A
6:20 AM39 °FChilly.25 mph70%29.39 "HgN/A
5:50 AM41 °FQuite cool.25 mph66%29.39 "HgN/A
5:20 AM39 °FChilly.21 mph75%29.36 "HgN/A
4:50 AM39 °FSprinkles. Overcast.23 mph75%29.36 "HgN/A
4:20 AM39 °FChilly.21 mph75%29.33 "HgN/A
3:50 AM39 °FSprinkles. Overcast.22 mph81%29.33 "HgN/A
3:20 AM41 °FQuite cool.14 mph70%29.30 "HgN/A
1:20 AM39 °FChilly.12 mph75%29.24 "HgN/A
12:50 AM39 °FLight rain. Overcast.26 mph81%29.24 "Hg4 mi
11:20 PM
Sun, Nov 29
N/A16 mphN/AN/AN/A
10:50 PM41 °FQuite cool.24 mph76%N/AN/A
10:20 PM41 °FQuite cool.37 mph76%N/AN/A
9:50 PM39 °FSprinkles. Overcast.36 mph81%N/AN/A
9:20 PM39 °FDrizzle. Overcast.59 mph81%28.88 "Hg2 mi
8:20 PM48 °FLight rain. Passing clouds.18 mph66%28.77 "HgN/A
7:50 PM46 °FPartly cloudy.15 mph76%28.85 "HgN/A
7:20 PM48 °FSprinkles. Passing clouds.14 mph82%28.91 "HgN/A
6:50 PM46 °FLight rain. Passing clouds.13 mph87%28.94 "Hg4 mi
6:20 PM46 °FLight rain. Passing clouds.13 mph87%29.00 "Hg4 mi
5:50 PM45 °FRain. Passing clouds.12 mph87%29.06 "Hg3 mi
5:20 PM45 °FLight rain. Passing clouds.10 mph87%29.12 "Hg6 mi
4:50 PM45 °FPartly cloudy.8 mph81%29.18 "HgN/A
4:20 PM45 °FPassing clouds.7 mph76%29.24 "HgN/A
3:50 PM45 °FSprinkles. Passing clouds.8 mph76%29.27 "HgN/A
3:20 PM45 °FPartly sunny.8 mph76%29.30 "HgN/A
2:50 PM45 °FSprinkles. Partly sunny.7 mph76%29.30 "HgN/A
2:20 PM43 °FBroken clouds.6 mph81%29.30 "HgN/A
1:50 PM45 °FPartly sunny.6 mph76%29.30 "HgN/A
1:20 PM45 °FPartly sunny.7 mph71%29.33 "HgN/A
12:50 PM43 °FQuite cool.10 mph76%29.33 "HgN/A
12:20 PM43 °FScattered clouds.13 mph76%29.33 "HgN/A
Weather by CustomWeather, © 2015

See weather overviewHow to use our weather pages